Weather History for Ainsworth, NE

Change the Weather History Date:

Sunday, February 5, 2012

  Actual Average Record
Temperature  
Mean Temperature 28 °F -  
Max Temperature 40 °F 36 °F 73 °F (1997)
Min Temperature 15 °F 16 °F -9 °F (2014)
Degree Days  
Heating Degree Days 38    
Moisture  
Dew Point 21 °F    
Average Humidity 86    
Maximum Humidity 96    
Minimum Humidity 66    
Precipitation  
Precipitation 0.05 in - - ()
Sea Level Pressure  
Sea Level Pressure 30.34 in    
Wind  
Wind Speed 6 mph (WSW)    
Max Wind Speed 8 mph    
Max Gust Speed -    
Visibility 10 miles    
Events      
Averages and records for this station are not official NWS values.
T = Trace of Precipitation, MM = Missing Value Source: NWS Daily Summary

Daily Weather History Graph

Daily Weather History Graph

Search for Another Location

Airport:

Trip Planner

Search our weather history database for the weather conditions in past years. The results will help you decide how hot, cold, wet, or windy it might be!

Date:

Astronomy

Feb. 05, 2012 Rise Set
Actual Time 7:50 AM CST 5:58 PM CST
Civil Twilight 7:20 AM CST 6:27 PM CST
Nautical Twilight 6:47 AM CST 7:01 PM CST
Astronomical Twilight 6:14 AM CST 7:34 PM CST
Moon 3:57 PM CST (2/5) 6:04 AM CST (2/5)
Length of Visible Light 11h 07m
Length of Day
10h 08m
Waxing Gibbous, 95% of the Moon is Illuminated
Feb 5
Waxing Gibbous
Feb 7
Full
Feb 14
Last Quarter
Feb 21
New
Feb 29
First Quarter

Hourly Weather History & Observations

Time (CST) Temp. Windchill Dew Point Humidity Pressure Visibility Wind Dir Wind Speed Gust Speed Precip Events Conditions
12:15 AM 17.6 °F 9.3 °F 16.3 °F 95% 30.39 in 10.0 mi West 5.8 mph - N/A   Clear
12:35 AM 18.0 °F 9.8 °F 16.7 °F 95% 30.39 in 10.0 mi WSW 5.8 mph - N/A   Clear
12:55 AM 18.3 °F 10.2 °F 17.2 °F 96% 30.39 in 10.0 mi West 5.8 mph - N/A   Clear
1:15 AM 17.6 °F 7.3 °F 16.3 °F 95% 30.38 in 10.0 mi WSW 8.1 mph - N/A   Clear
1:35 AM 16.2 °F 6.5 °F 14.5 °F 93% 30.38 in 10.0 mi West 6.9 mph - N/A   Clear
1:55 AM 17.6 °F 9.3 °F 16.3 °F 95% 30.38 in 10.0 mi West 5.8 mph - N/A   Clear
2:15 AM 17.6 °F 7.3 °F 16.2 °F 94% 30.38 in 10.0 mi West 8.1 mph - N/A   Clear
2:35 AM 17.2 °F 6.8 °F 16.0 °F 95% 30.38 in 10.0 mi West 8.1 mph - N/A   Clear
2:55 AM 17.6 °F 8.2 °F 16.2 °F 94% 30.37 in 10.0 mi West 6.9 mph - N/A   Clear
3:15 AM 17.8 °F 9.6 °F 16.5 °F 95% 30.38 in 10.0 mi West 5.8 mph - N/A   Clear
3:35 AM 17.4 °F 9.1 °F 15.8 °F 93% 30.38 in 10.0 mi West 5.8 mph - N/A   Clear
3:55 AM 17.1 °F 10.0 °F 15.6 °F 94% 30.38 in 10.0 mi West 4.6 mph - N/A   Clear
4:15 AM 17.4 °F 8.0 °F 15.8 °F 93% 30.37 in 10.0 mi West 6.9 mph - N/A   Clear
4:35 AM 15.8 °F 5.1 °F 13.8 °F 92% 30.36 in 10.0 mi West 8.1 mph - N/A   Clear
4:55 AM 16.5 °F 6.9 °F 14.9 °F 93% 30.37 in 10.0 mi West 6.9 mph - N/A   Clear
5:15 AM 16.2 °F 7.6 °F 14.2 °F 92% 30.37 in 10.0 mi West 5.8 mph - N/A   Clear
5:35 AM 16.0 °F 5.3 °F 14.2 °F 93% 30.36 in 10.0 mi West 8.1 mph - N/A   Clear
5:55 AM 16.3 °F 6.7 °F 14.4 °F 92% 30.36 in 10.0 mi West 6.9 mph - N/A   Clear
6:15 AM 15.8 °F 7.2 °F 14.0 °F 93% 30.36 in 10.0 mi West 5.8 mph - N/A   Clear
6:35 AM 16.3 °F 7.8 °F 14.5 °F 93% 30.36 in 10.0 mi West 5.8 mph - N/A   Clear
6:55 AM 16.3 °F 7.8 °F 14.5 °F 93% 30.36 in 10.0 mi West 5.8 mph - N/A   Clear
7:15 AM 16.3 °F 7.8 °F 14.7 °F 93% 30.36 in 10.0 mi West 5.8 mph - N/A   Clear
7:35 AM 16.5 °F 6.0 °F 14.7 °F 93% 30.35 in 10.0 mi West 8.1 mph - N/A   Clear
7:55 AM 15.3 °F 6.6 °F 13.6 °F 93% 30.36 in 10.0 mi West 5.8 mph - N/A   Clear
8:15 AM 15.8 °F 6.1 °F 14.4 °F 94% 30.36 in 10.0 mi WSW 6.9 mph - N/A   Clear
8:35 AM 16.7 °F 7.2 °F 14.9 °F 93% 30.36 in 10.0 mi West 6.9 mph - N/A   Clear
8:55 AM 17.4 °F 8.0 °F 15.4 °F 92% 30.36 in 10.0 mi West 6.9 mph - N/A   Clear
9:15 AM 19.0 °F 12.3 °F 16.7 °F 91% 30.37 in 10.0 mi West 4.6 mph - N/A   Clear
9:35 AM 20.3 °F 11.5 °F 17.8 °F 90% 30.37 in 10.0 mi WSW 6.9 mph - N/A   Clear
9:55 AM 22.6 °F 14.3 °F 19.9 °F 89% 30.37 in 10.0 mi West 6.9 mph - N/A   Clear
10:15 AM 24.1 °F 17.0 °F 21.4 °F 89% 30.37 in 10.0 mi West 5.8 mph - N/A   Clear
10:35 AM 25.3 °F 19.7 °F 22.1 °F 87% 30.36 in 10.0 mi West 4.6 mph - N/A   Clear
10:55 AM 27.7 °F 23.8 °F 23.9 °F 86% 30.36 in 10.0 mi West 3.5 mph - N/A   Clear
11:15 AM 29.3 °F 24.3 °F 25.0 °F 84% 30.37 in 10.0 mi WSW 4.6 mph - N/A   Clear
11:35 AM 30.7 °F 26.0 °F 26.1 °F 83% 30.37 in 10.0 mi WSW 4.6 mph - N/A   Clear
11:55 AM 31.8 °F 28.5 °F 26.8 °F 82% 30.36 in 10.0 mi WSW 3.5 mph - N/A   Clear
12:15 PM 32.5 °F 29.3 °F 27.7 °F 82% 30.36 in 10.0 mi WSW 3.5 mph - N/A   Clear
12:35 PM 33.8 °F 29.6 °F 28.2 °F 80% 30.35 in 10.0 mi WSW 4.6 mph - N/A   Clear
12:55 PM 34.9 °F 30.8 °F 28.6 °F 78% 30.33 in 10.0 mi WSW 4.6 mph - 0.01 in   Clear
1:15 PM 35.6 °F 31.7 °F 29.3 °F 78% 30.32 in 10.0 mi WSW 4.6 mph - 0.02 in   Clear
1:35 PM 36.9 °F 33.1 °F 29.3 °F 74% 30.32 in 10.0 mi WSW 4.6 mph - 0.02 in   Clear
1:55 PM 37.8 °F 35.3 °F 29.7 °F 73% 30.31 in 10.0 mi WSW 3.5 mph - 0.04 in   Clear
2:15 PM 38.7 °F - 29.8 °F 71% 30.30 in 10.0 mi Calm Calm - N/A   Clear
2:35 PM 40.1 °F - 29.7 °F 66% 30.29 in 10.0 mi Calm Calm - N/A   Clear
2:55 PM 39.6 °F - 29.1 °F 66% 30.29 in 10.0 mi Calm Calm - N/A   Clear
3:15 PM 39.6 °F - 29.5 °F 67% 30.29 in 10.0 mi Calm Calm - N/A   Clear
3:35 PM 39.7 °F - 29.5 °F 67% 30.29 in 10.0 mi Calm Calm - N/A   Clear
3:55 PM 39.4 °F - 29.3 °F 67% 30.28 in 10.0 mi Calm Calm - N/A   Clear
4:15 PM 38.7 °F 36.3 °F 30.0 °F 71% 30.28 in 10.0 mi South 3.5 mph - N/A   Clear
4:35 PM 38.3 °F 34.8 °F 29.3 °F 70% 30.28 in 10.0 mi South 4.6 mph - N/A   Clear
4:55 PM 37.4 °F 31.4 °F 29.1 °F 72% 30.27 in 10.0 mi South 8.1 mph - N/A   Clear
5:15 PM 36.5 °F 30.3 °F 29.7 °F 76% 30.27 in 10.0 mi SW 8.1 mph - N/A   Clear
5:35 PM 35.2 °F 30.3 °F 28.9 °F 78% 30.26 in 10.0 mi SSW 5.8 mph - N/A   Clear
5:55 PM 32.2 °F 27.7 °F 27.3 °F 82% 30.26 in 10.0 mi SSW 4.6 mph - N/A   Clear
6:15 PM 30.2 °F 25.4 °F 26.8 °F 87% 30.26 in 10.0 mi South 4.6 mph - N/A   Clear
6:35 PM 29.1 °F 24.1 °F 25.9 °F 88% 30.25 in 10.0 mi SSW 4.6 mph - N/A   Clear
6:55 PM 28.0 °F 22.8 °F 25.2 °F 89% 30.25 in 10.0 mi SSW 4.6 mph - N/A   Clear
7:15 PM 26.8 °F 21.4 °F 23.7 °F 88% 30.24 in 10.0 mi SSW 4.6 mph - N/A   Clear
7:35 PM 29.5 °F 21.8 °F 26.1 °F 87% 30.24 in 10.0 mi SSW 8.1 mph - N/A   Clear
7:55 PM 29.1 °F 21.3 °F 24.8 °F 84% 30.24 in 10.0 mi SSW 8.1 mph - N/A   Clear
8:15 PM 29.1 °F 21.3 °F 24.8 °F 84% 30.23 in 10.0 mi SSW 8.1 mph - N/A   Clear
8:35 PM 28.4 °F 21.2 °F 24.6 °F 86% 30.23 in 10.0 mi SSW 6.9 mph - N/A   Clear
8:55 PM 27.9 °F 20.6 °F 23.9 °F 85% 30.23 in 10.0 mi SSW 6.9 mph - N/A   Clear
9:15 PM 27.3 °F 19.1 °F 23.5 °F 86% 30.23 in 10.0 mi SSW 8.1 mph - N/A   Clear
9:35 PM 27.3 °F 18.4 °F 23.5 °F 86% 30.22 in 10.0 mi SW 9.2 mph - N/A   Clear
9:55 PM 27.0 °F 18.0 °F 22.8 °F 84% 30.22 in 10.0 mi SW 9.2 mph - N/A   Clear
10:15 PM 26.2 °F 17.8 °F 22.1 °F 84% 30.22 in 10.0 mi SW 8.1 mph - N/A   Clear
10:35 PM 25.7 °F 17.1 °F 21.9 °F 86% 30.21 in 10.0 mi SW 8.1 mph - N/A   Clear
10:55 PM 24.6 °F 15.8 °F 21.2 °F 87% 30.21 in 10.0 mi WSW 8.1 mph - N/A   Clear
11:15 PM 23.9 °F 15.0 °F 20.3 °F 86% 30.21 in 10.0 mi WSW 8.1 mph - N/A   Clear
11:35 PM 23.9 °F 16.8 °F 20.3 °F 86% 30.20 in 10.0 mi WSW 5.8 mph - N/A   Clear
11:55 PM 23.2 °F 15.0 °F 19.4 °F 85% 30.20 in 10.0 mi SW 6.9 mph - N/A   Clear